Location: Mount Kobau Star Party
(49.1167°N, 119.7333°W)
Time: 11:15:04
(UTC-07:00)

ARIANE 6 FM1 Upper Stage - Pass Details

Date: 12 April 2026
Orbit: 526 x 601 km, 62.0° (Epoch: 18 May)

Event Time Altitude Azimuth Distance (km) Brightness Sun altitude
Rises 05:13:17 0° 301° (WNW) 2,663 5.8 -10.0°
Reaches altitude 10° 05:16:19 10° 276° (W) 1,768 4.7 -9.6°
Maximum altitude 05:18:25 14° 244° (WSW) 1,524 4.2 -9.3°
Drops below altitude 10° 05:20:32 10° 211° (SSW) 1,767 4.7 -9.0°
Sets 05:23:35 0° 186° (S) 2,659 5.8 -8.5°
